Location: Morisset
(33.1080°S, 151.4871°E)
Time: 08:53:43
(UTC+00:00)

ADEOS II - Pass Details

Date: 29 October 2020
Orbit: 800 x 800 km, 98.5° (Epoch: 27 November)

Event Time Altitude Azimuth Distance (km) Brightness Sun altitude
Exits shadow 16:07:18 17° 216° (SW) 1,946 4.1 -31.1°
Drops below altitude 10° 16:08:36 10° 209° (SSW) 2,401 4.7 -30.9°
Sets 16:11:05 0° 201° (SSW) 3,339 5.6 -30.6°
